Change the Weather History Date:

Saturday, September 14, 2013

  Actual Average Record
Temperature  
Mean Temperature 82 °F 80 °F  
Max Temperature 86 °F 85 °F 88 °F (1959)
Min Temperature 78 °F 74 °F 66 °F (1951)
Degree Days  
Heating Degree Days 0 0  
Month to date heating degree days 0 0  
Since 1 July heating degree days 0 0  
Cooling Degree Days 17 15  
Month to date cooling degree days 212 210  
Year to date cooling degree days 2508 2736  
Growing Degree Days 32 (Base 50)    
Moisture  
Dew Point 71 °F    
Average Humidity 68    
Maximum Humidity 79    
Minimum Humidity 57    
Precipitation  
Precipitation 0.00 in 0.07 in 0.56 in (1984)
Month to date precipitation 0.94 0.84  
Year to date precipitation 18.15 22.29  
Snow  
Snow 0.00 in - - ()
Month to date snowfall 0.0  
Since 1 July snowfall 0.0  
Since 1 September snowfall 0.0  
Snow Depth 0.00 in    
Sea Level Pressure  
Sea Level Pressure 29.94 in    
Wind  
Wind Speed 11 mph (ENE)    
Max Wind Speed 15 mph    
Max Gust Speed 18 mph    
Visibility 10 miles    
Events      
T = Trace of Precipitation, MM = Missing Value Source: NWS Daily Summary

Daily Weather History Graph

Daily Weather History Graph

Search for Another Location

Airport or City:

Trip Planner

Search our weather history database for the weather conditions in past years. The results will help you decide how hot, cold, wet, or windy it might be!

Date:

Astronomy

Sep. 14, 2013 Rise Set
Actual Time 6:24 AM HST 6:41 PM HST
Civil Twilight 6:01 AM HST 7:03 PM HST
Nautical Twilight 5:35 AM HST 7:29 PM HST
Astronomical Twilight 5:09 AM HST 7:55 PM HST
Moon 3:06 PM HST (9/14) 1:36 AM HST (9/14)
Length of Visible Light 13h 01m
Length of Day
12h 16m
Waxing Gibbous, 74% of the Moon is Illuminated
Sep 14
Waxing Gibbous
Sep 19
Full
Sep 26
Last Quarter
Oct 4
New
Oct 11
First Quarter

Hourly Weather History & Observations

Time (HST) Temp. Heat Index Dew Point Humidity Pressure Visibility Wind Dir Wind Speed Gust Speed Precip Events Conditions
12:53 AM 79.0 °F - 71.1 °F 77% 29.93 in 10.0 mi ENE 8.1 mph - N/A   Overcast
1:53 AM 79.0 °F - 71.1 °F 77% 29.91 in 10.0 mi East 11.5 mph - N/A   Overcast
2:53 AM 79.0 °F - 70.0 °F 74% 29.90 in 10.0 mi ENE 11.5 mph - N/A   Mostly Cloudy
3:53 AM 78.1 °F - 71.1 °F 79% 29.89 in 10.0 mi ENE 11.5 mph - N/A   Mostly Cloudy
4:53 AM 79.0 °F - 71.1 °F 77% 29.90 in 10.0 mi ENE 12.7 mph - N/A   Overcast
5:53 AM 79.0 °F - 71.1 °F 77% 29.91 in 10.0 mi ENE 15.0 mph - N/A   Mostly Cloudy
6:53 AM 78.1 °F - 69.1 °F 74% 29.93 in 10.0 mi ENE 12.7 mph - N/A   Mostly Cloudy
7:53 AM 80.1 °F 83.2 °F 70.0 °F 71% 29.95 in 10.0 mi ENE 11.5 mph - N/A   Partly Cloudy
8:53 AM 82.0 °F 85.9 °F 70.0 °F 67% 29.95 in 10.0 mi ENE 9.2 mph - N/A   Clear
9:53 AM 82.9 °F 87.0 °F 70.0 °F 65% 29.96 in 10.0 mi ENE 10.4 mph - N/A   Mostly Cloudy
10:22 AM 82.4 °F 86.3 °F 69.8 °F 66% 29.97 in 10.0 mi ENE 12.7 mph - N/A   Scattered Clouds
10:53 AM 84.0 °F 87.8 °F 69.1 °F 61% 29.95 in 10.0 mi ENE 10.4 mph - N/A   Partly Cloudy
11:53 AM 84.0 °F 88.4 °F 70.0 °F 63% 29.94 in 10.0 mi NE 10.4 mph - N/A   Scattered Clouds
12:53 PM 84.9 °F 89.4 °F 70.0 °F 61% 29.92 in 10.0 mi ENE 11.5 mph - N/A   Scattered Clouds
1:17 PM 84.2 °F 88.4 °F 69.8 °F 62% 29.93 in 10.0 mi NE 11.5 mph - N/A   Mostly Cloudy
1:41 PM 84.2 °F 89.6 °F 71.6 °F 66% 29.92 in 10.0 mi ENE 11.5 mph - N/A   Mostly Cloudy
1:53 PM 82.9 °F 87.0 °F 70.0 °F 65% 29.91 in 10.0 mi NE 12.7 mph - N/A   Mostly Cloudy
2:06 PM 84.2 °F 89.6 °F 71.6 °F 66% 29.91 in 10.0 mi NE 11.5 mph - N/A   Scattered Clouds
2:53 PM 86.0 °F 90.7 °F 70.0 °F 59% 29.90 in 10.0 mi NE 11.5 mph - N/A   Clear
3:53 PM 84.0 °F 89.0 °F 71.1 °F 65% 29.90 in 10.0 mi NE 11.5 mph - N/A   Partly Cloudy
4:53 PM 82.9 °F 87.5 °F 71.1 °F 67% 29.91 in 10.0 mi NE 12.7 mph - N/A   Scattered Clouds
5:53 PM 81.0 °F 84.9 °F 71.1 °F 72% 29.92 in 10.0 mi NE 13.8 mph - N/A   Scattered Clouds
6:53 PM 80.1 °F 83.6 °F 71.1 °F 74% 29.92 in 10.0 mi NE 12.7 mph - N/A   Scattered Clouds
7:41 PM 78.8 °F - 71.6 °F 78% 29.94 in 10.0 mi ENE 12.7 mph - N/A   Mostly Cloudy
7:48 PM 78.8 °F - 71.6 °F 78% 29.95 in 10.0 mi ENE 12.7 mph - N/A   Scattered Clouds
7:53 PM 79.0 °F - 71.1 °F 77% 29.94 in 10.0 mi ENE 13.8 mph - N/A   Scattered Clouds
8:24 PM 78.8 °F - 71.6 °F 78% 29.96 in 10.0 mi ENE 11.5 mph - N/A   Mostly Cloudy
8:33 PM 78.8 °F - 71.6 °F 78% 29.96 in 10.0 mi ENE 11.5 mph - N/A   Scattered Clouds
8:45 PM 78.8 °F - 71.6 °F 78% 29.96 in 10.0 mi ENE 13.8 mph - N/A   Mostly Cloudy
8:53 PM 79.0 °F - 71.1 °F 77% 29.96 in 10.0 mi ENE 11.5 mph - N/A   Scattered Clouds
9:53 PM 79.0 °F - 71.1 °F 77% 29.97 in 10.0 mi ENE 12.7 mph - N/A   Scattered Clouds
10:02 PM 78.8 °F - 71.6 °F 78% 29.97 in 10.0 mi ENE 12.7 mph - N/A   Mostly Cloudy
10:10 PM 78.8 °F - 71.6 °F 78% 29.97 in 10.0 mi ENE 12.7 mph - N/A   Partly Cloudy
10:39 PM 78.8 °F - 71.6 °F 78% 29.98 in 10.0 mi ENE 10.4 mph - N/A   Mostly Cloudy
10:53 PM 79.0 °F - 71.1 °F 77% 29.97 in 10.0 mi ENE 10.4 mph - N/A   Mostly Cloudy
11:53 PM 79.0 °F - 72.0 °F 79% 29.96 in 10.0 mi ENE 6.9 mph - N/A   Mostly Cloudy